Regional Weather Roundup
Issued by NWS

Home | Current Version | Previous Version | Graphics & Text | Print | Product List | Glossary On
Versions: 1 2 3 4 5 6 7 8 9 10 11 12 13 14 15 16 17 18 19 20 21 22 23 24 25 26 27 28 29 30 31 32 33 34 35 36 37 38 39 40 41 42 43 44 45 46 47 48 49 50
164
ASUS43 KDMX 182201
RWRIA

WEATHER ROUNDUP FOR IOWA
NATIONAL WEATHER SERVICE DES MOINES IA
400 PM CST SAT NOV 18 2017

NOTE: "FAIR" INDICATES FEW OR NO CLOUDS BELOW 12,000 FEET WITH NO
SIGNIFICANT WEATHER AND/OR OBSTRUCTIONS TO VISIBILITY.

* - THESE STATIONS ARE NOT NWS STATIONS...THUS NOT UNDER NWS
QUALITY CONTROL.  THEY ALSO DO NOT REPORT WEATHER SUCH
AS PRECIPITATION OR FOG.

IAZ001>003-012>014-020>022-031>034-043>046-182300-
   NORTHWEST IOWA

CITY           SKY/WX    TMP DP  RH WIND       PRES   REMARKS
CARROLL *      PTCLDY    39  27  60 NW24      29.98R WCI  28
CHEROKEE *     PTCLDY    37  21  52 NW18G26   30.02R WCI  27
DENISON *      CLEAR     39  25  56 NW22G32   30.03R WCI  29
LE MARS *      CLEAR     37  21  52 NW15G30   30.05R WCI  28
ORANGE CITY *  CLEAR     37  21  52 NW20G28   30.03R WCI  27
SHELDON *      CLEAR     36  18  48 NW23G33   30.00R WCI  24
SIOUX CITY     CLEAR     39  24  55 NW25G31   30.06R WCI  28
SPENCER        CLEAR     37  19  48 NW17      29.98R WCI  27
STORM LAKE *   CLEAR     36  21  55 NW23G31   29.99R WCI  24
$$

IAZ055>058-069>071-079>083-090>094-182300-
   SOUTHWEST IOWA

CITY           SKY/WX    TMP DP  RH WIND       PRES   REMARKS
ATLANTIC *     CLEAR     43  28  56 NW17G25   30.00R
AUDUBON *      CLEAR     41  27  56 NW18G28   29.99R
CLARINDA *     CLEAR     46  28  49 N29G35      N/A
COUNCIL BLFS * CLEAR     43  30  61 NW17G25   30.04R
CRESTON *      PTCLDY    43  30  61 NW23G30   29.98R
HARLAN  *      CLEAR     41  27  56 NW22G30   30.05R
LAMONI         PTCLDY    45  32  60 NW24G32   29.94R
RED OAK *      CLEAR     45  28  53 NW16G26   30.02R
SHENANDOAH *   CLEAR     46  28  49 NW16G28   30.04R
$$

IAZ047>049-059>061-072>074-084-182300-
   CENTRAL IOWA

CITY           SKY/WX    TMP DP  RH WIND       PRES   REMARKS
AMES           PTCLDY    39  28  64 NW24G36   29.94R WCI  28
ANKENY *       MOCLDY    43  28  56 NW20G33   29.95R
BOONE *        PTCLDY    39  25  56 NW22G31   29.93R WCI  29
CHARITON *     CLEAR     43  30  61 NW25G33   29.91R
DES MOINES     MOCLDY    43  28  55 NW23G38   29.94R
GRINNELL*      CLEAR     39  30  70 NW28G33   29.89R WCI  28
KNOXVILLE *    CLEAR     43  28  56 NW23G30   29.89R
MARSHALLTOWN   CLEAR     38  29  70 NW21G32   29.89R WCI  28
NEWTON *       CLEAR     41  28  60 NW28G33   29.90R
PELLA *        CLEAR     42  30  61 NW18G28   29.91R
PERRY *        MOCLDY    39  28  64 NW16G22   29.97R WCI  30
$$

IAZ004>006-015-016-023>025-035-036-182300-
   NORTH CENTRAL IOWA

CITY           SKY/WX    TMP DP  RH WIND       PRES   REMARKS
ALGONA *       CLEAR     34  21  60 NW20G31   29.96R WCI  22
CLARION *      MOCLDY    34  27  75 NW24G32   29.94R WCI  21
ESTHERVILLE    CLEAR     32  20  61 NW23      29.97R WCI  19
FORT DODGE *   CLEAR     36  23  59 NW12G18   29.97R WCI  28
MASON CITY     CLOUDY    32  21  64 NW26G39   29.91R WCI  18
FOREST CITY *  MOCLDY    32  25  74 NW14G22   29.92R WCI  22
WEBSTER CITY * MOCLDY    36  27  69 NW24G30   29.93R WCI  24
IOWA FALLS *     N/A     37  28  72 NW25G35   29.91R WCI  25
$$

IAZ007>011-017>019-026>030-037>042-050>054-066-182300-
   NORTHEAST IOWA

CITY           SKY/WX    TMP DP  RH WIND       PRES   REMARKS
CEDAR RAPIDS   CLEAR     42  32  67 NW21G29   29.79R
CHARLES CITY * PTCLDY    37  28  70 NW18G32   29.85R WCI  27
CLINTON *      PTCLDY    40  34  79 NW15      29.73R WCI  32
DECORAH *      CLEAR     39  28  65 NW17G26   29.77R WCI  30
DUBUQUE        CLEAR     40  31  70 NW16      29.73R WCI  31
MONTICELLO *   CLEAR     43  32  65 NW17G24   29.75R
OELWEIN *      PTCLDY    39  34  81 NW26G32   29.80R WCI  28
WATERLOO       CLEAR     38  27  64 NW28G36   29.83R WCI  26
$$

IAZ064-065-067-068-078-182300-
   EAST CENTRAL IOWA

CITY           SKY/WX    TMP DP  RH WIND       PRES   REMARKS
DAVENPORT      PTCLDY    40  33  76 NW17G24   29.75R WCI  31
IOWA CITY      PTCLDY    45  31  58 NW16G25   29.80R
MT. PLEASANT * MOCLDY    44  32  63 NW17G28   29.80R
MUSCATINE *    PTCLDY    43  34  70 NW16      29.78R
QUAD CITIES    MOCLDY    42  33  70 NW20G28   29.74R
$$

IAZ062-063-075>077-085>089-095>099-182300-
   SOUTHEAST IOWA

CITY           SKY/WX    TMP DP  RH WIND       PRES   REMARKS
BURLINGTON     CLOUDY    43  35  73 NW15G28   29.77R
FAIRFIELD *    MOCLDY    43  32  65 NW20      29.82R
FORT MADISON * MOCLDY    43  37  81 NW21G29   29.80R
KEOKUK *       MOCLDY    43  36  75 NW17G24   29.80R
OSKALOOSA *      N/A     42  31  65 NW18G28   29.87R
OTTUMWA        PTCLDY    44  30  57 NW22G33   29.85R
WASHINGTON *   PTCLDY    43  34  70 NW21G26   29.82R
$$

ABBREVIATIONS USED IN REMARKS
   TC - TEMPERATURES IN CELSIUS
  WCI - WIND CHILL INDEX
   HX - HEAT INDEX
  VSB - VISIBILITY
$$





USA.gov is the U.S. government's official web portal to all federal, state and local government web resources and services.